Location: Tierra del Sol
(32.6128°N, 116.3319°W)
Time: 14:42:50
(UTC-08:00)

Amateur Radio Satellites - All Passes

Search period start: 19 December 2014 14:12
Search period end: 20 December 2014 14:12
Location: Tierra del Sol, 32.6128°N, 116.3319°W

Satellite Date Start Highest point End Downlink Frequencies (MHz)
Time Altitude Azimuth
Gurwin Techsat 1B 19 Dec 14:21:03 14:25:59 39° 261° (W) 14:30:57 435.225
PCSat 19 Dec 14:22:17 14:26:57 29° 303° (WNW) 14:31:39 145.827
AIST 2 19 Dec 14:24:43 14:28:11 24° 305° (NW) 14:31:43 435.215
BEESAT 3 19 Dec 14:28:45 14:28:52 10° 312° (NW) 14:28:59 437.485
ITUPSAT 1 19 Dec 14:33:28 14:36:08 15° 294° (WNW) 14:38:48 437.325
SWISSCUBE 19 Dec 14:33:52 14:36:08 13° 294° (WNW) 14:38:24 437.505
ITAMSAT 1 19 Dec 14:35:09 14:38:21 17° 266° (W) 14:41:34 435.822/435.867
STARS 19 Dec 14:42:15 14:46:42 82° 283° (WNW) 14:51:09 437.465
KKS-1 19 Dec 14:43:24 14:47:44 51° 286° (WNW) 14:52:03 437.445
GONETS M04 19 Dec 14:44:29 14:46:30 11° 64° (ENE) 14:48:30
RS-15 19 Dec 14:53:18 14:58:26 14° 333° (NNW) 15:03:37 29.354- 29.394
AUBIESAT-1 19 Dec 14:55:36 14:58:32 18° 297° (WNW) 15:01:18 437.475
SRMSAT 19 Dec 15:02:21 15:06:58 23° 179° (S) 15:11:34 437.500
HORYU 2 19 Dec 15:08:03 15:11:49 27° 263° (W) 15:15:38 437.375
JAS-2 19 Dec 15:15:59 15:22:51 36° 70° (ENE) 15:29:17 435.910
AO-7 19 Dec 15:41:48 15:49:57 60° 256° (WSW) 15:58:11 29.400- 29.500
MOZHAYETS 4 19 Dec 15:45:04 15:48:16 18° 94° (E) 15:51:27
JUGNU 19 Dec 15:50:28 15:54:20 18° 192° (SSW) 15:58:10 437.505
CUTE-I 19 Dec 16:14:57 16:18:29 18° 66° (ENE) 16:22:00 437.470
AIST 1 19 Dec 16:26:16 16:30:36 61° 278° (W) 16:34:56
GONETS M04 19 Dec 16:36:00 16:44:46 75° 83° (E) 16:53:26
SRMSAT 19 Dec 16:51:22 16:55:33 20° 189° (S) 16:59:43 437.500
PRISM 19 Dec 16:55:29 16:57:22 13° 94° (E) 16:59:15 437.425
JAS-2 19 Dec 17:00:29 17:07:39 40° 262° (W) 17:14:26 435.910
Cubesat XI-IV 19 Dec 17:19:09 17:24:29 83° 76° (ENE) 17:29:49 437.490
MOZHAYETS 4 19 Dec 17:21:23 17:25:31 33° 288° (WNW) 17:29:36
MaSat-1 19 Dec 17:45:51 17:47:10 13° 63° (ENE) 17:48:33 437.345
CUTE-I 19 Dec 17:53:03 17:58:08 46° 260° (W) 18:03:14 437.470
STRAND 1 19 Dec 18:25:41 18:30:43 61° 101° (ESE) 18:35:44 437.568
HO-68 19 Dec 18:27:56 18:32:35 19° 61° (ENE) 18:37:15 435.675
PRISM 19 Dec 18:29:11 18:33:01 37° 287° (WNW) 18:36:48 437.425
GONETS M04 19 Dec 18:35:14 18:40:31 18° 279° (W) 18:45:48
CUBESAT XI-V 19 Dec 18:40:58 18:45:33 70° 284° (WNW) 18:50:06 437.345
SRMSAT 19 Dec 18:42:48 18:44:03 11° 198° (SSW) 18:45:18 437.500
SEEDS 19 Dec 18:55:47 18:56:41 11° 67° (ENE) 18:57:34 437.485
CUTE 1.7 + AOD 2 19 Dec 18:56:38 18:58:41 13° 68° (ENE) 19:00:44 437.475
CUSAT 1 19 Dec 19:15:42 19:22:20 28° 74° (ENE) 19:29:20 437.405
MaSat-1 19 Dec 19:19:44 19:20:22 11° 253° (WSW) 19:21:00 437.345
DOVE 4 19 Dec 19:20:24 19:22:16 13° 68° (ENE) 19:24:09 437.250
RS-15 19 Dec 19:26:35 19:36:20 32° 47° (NE) 19:46:21 29.354- 29.394
ISS 19 Dec 19:45:16 19:47:27 17° 34° (NNE) 19:49:38 145.825
AAUSAT CUBESAT 2 19 Dec 19:49:19 19:53:08 35° 73° (ENE) 19:56:59 437.432
CINEMA 3 19 Dec 19:51:58 19:54:45 18° 69° (ENE) 19:57:33 145.822/145.860
BRITE-PL 19 Dec 19:54:19 19:58:33 76° 77° (ENE) 20:02:41 437.365/2234.400
CANX-2 19 Dec 19:58:56 20:03:11 88° 77° (ENE) 20:07:29 2200.000
DANDE 19 Dec 20:01:44 20:09:26 53° 79° (E) 20:17:52 436.750
STRAND 1 19 Dec 20:07:05 20:09:20 13° 295° (WNW) 20:11:35 437.568
HO-68 19 Dec 20:12:23 20:19:32 71° 256° (WSW) 20:26:43 435.675
UWE-3 19 Dec 20:21:34 20:24:36 20° 70° (ENE) 20:27:42 435.000/436.395/437.385
COMPASS 1 19 Dec 20:23:31 20:27:43 72° 259° (W) 20:31:57 437.405
FUNcube-1 19 Dec 20:23:34 20:26:19 17° 69° (ENE) 20:29:06 145.935
GOMX 1 19 Dec 20:25:50 20:29:59 64° 259° (W) 20:34:06 467.674
SEEDS 19 Dec 20:27:52 20:31:59 51° 260° (W) 20:36:09 437.485
CUTE 1.7 + AOD 2 19 Dec 20:30:11 20:34:12 41° 261° (W) 20:38:15 437.475
AISAT 19 Dec 20:37:50 20:40:27 16° 68° (ENE) 20:43:04 437.250
DX 1 19 Dec 20:38:53 20:43:06 53° 74° (ENE) 20:47:20 434.975-435.025
SO-50 19 Dec 20:41:42 20:46:10 81° 298° (WNW) 20:50:48 436.795
DELFI C3 19 Dec 20:45:47 20:49:52 69° 77° (ENE) 20:53:58 145.870
50 SAT 19 Dec 20:49:44 20:52:05 15° 69° (ENE) 20:54:26 437.505
DOVE 4 19 Dec 20:55:50 20:59:41 37° 262° (W) 21:03:33 437.250
CUSAT 1 19 Dec 20:57:50 21:05:36 58° 267° (W) 21:13:53 437.405
Oscar 11 19 Dec 21:03:01 21:07:16 58° 260° (W) 21:11:33 145.826/435.025
HUMSAT D 19 Dec 21:03:21 21:06:55 29° 72° (ENE) 21:10:32 437.325/437.525
UKube-1 19 Dec 21:10:54 21:15:11 63° 259° (WSW) 21:19:29 .
BEESAT 3 19 Dec 21:12:04 21:13:47 12° 50° (NE) 21:15:30 437.485
CUBEBUG 2 19 Dec 21:16:41 21:20:47 68° 259° (W) 21:25:00 437.445
ISS 19 Dec 21:21:04 21:24:09 40° 229° (SW) 21:27:13 145.825
AAUSAT CUBESAT 2 19 Dec 21:26:36 21:28:52 14° 266° (W) 21:31:09 437.432
TIGRISAT 19 Dec 21:26:58 21:30:11 18° 95° (E) 21:33:22 435.000
CINEMA 3 19 Dec 21:28:12 21:31:44 27° 263° (W) 21:35:19 145.822/145.860
VELOX 1 19 Dec 21:29:37 21:33:59 63° 75° (ENE) 21:38:21 145.980
ESTCUBE 1 19 Dec 21:29:45 21:33:19 23° 70° (ENE) 21:36:53 437.505/2401.250
ZACube-1 19 Dec 21:31:11 21:35:17 64° 259° (W) 21:39:29 437.345
PCSat 19 Dec 21:33:44 21:35:03 11° 48° (NE) 21:36:22 145.827
RS-15 19 Dec 21:38:14 21:49:32 71° 247° (WSW) 22:01:21 29.354- 29.394
POPSAT HIP 1 19 Dec 21:38:52 21:41:00 14° 94° (E) 21:43:08 437.405
DANDE 19 Dec 21:45:51 21:52:36 31° 271° (W) 21:59:51 436.750
YUBILEINY 19 Dec 21:46:37 21:49:20 12° 78° (ENE) 21:52:02 435.215
BEESAT 2 19 Dec 21:49:37 21:53:11 27° 56° (NE) 21:56:42 435.950
UNISAT 6 19 Dec 21:54:39 21:59:03 38° 98° (E) 22:03:26 437.425
UWE-3 19 Dec 21:57:34 22:00:58 25° 264° (W) 22:04:27 435.000/436.395/437.385
FUNcube-1 19 Dec 21:58:48 22:02:25 29° 263° (W) 22:06:05 145.935
DUCHIFAT 1 19 Dec 22:05:57 22:09:40 29° 98° (E) 22:13:23 145.980
BUGSAT 1 19 Dec 22:09:27 22:12:47 24° 97° (E) 22:16:08 437.445
AISAT 19 Dec 22:12:38 22:16:44 37° 261° (W) 22:20:50 437.250
QB50P2 19 Dec 22:18:33 22:22:38 43° 99° (E) 22:26:43 145.880/145.840
CUBEBUG 1 19 Dec 22:21:24 22:25:47 89° 77° (ENE) 22:30:09 437.445
50 SAT 19 Dec 22:23:28 22:27:00 30° 262° (W) 22:30:35 437.505
ANTELSAT 19 Dec 22:26:13 22:30:58 90° 102° (ESE) 22:35:41 437.575/2403.000
POLYITAN 1 19 Dec 22:26:57 22:31:11 56° 101° (E) 22:35:24 437.675
NANOSAT C BR1 19 Dec 22:29:58 22:34:11 61° 101° (E) 22:38:23 145.865
HUMSAT D 19 Dec 22:40:08 22:42:44 16° 266° (W) 22:45:21 437.325/437.525
QB50P1 19 Dec 22:44:11 22:48:27 88° 283° (WNW) 22:52:43 145.935-145.965
BEESAT 3 19 Dec 22:48:14 22:52:17 54° 245° (WSW) 22:56:16 437.485
AIST 2 19 Dec 22:50:05 22:54:18 56° 60° (ENE) 22:58:26 435.215
TIGRISAT 19 Dec 23:02:40 23:06:57 36° 287° (WNW) 23:11:14 435.000
ESTCUBE 1 19 Dec 23:06:14 23:10:01 26° 263° (W) 23:13:49 437.505/2401.250
POPSAT HIP 1 19 Dec 23:13:02 23:16:59 38° 287° (WNW) 23:20:57 437.405
PCSat 19 Dec 23:13:46 23:19:13 86° 65° (ENE) 23:24:37 145.827
BEESAT 2 19 Dec 23:28:06 23:31:15 21° 250° (WSW) 23:34:22 435.950
TISAT 1 19 Dec 23:32:16 23:36:24 56° 259° (W) 23:40:32 437.305
UNISAT 6 19 Dec 23:32:23 23:35:29 18° 292° (WNW) 23:38:35 437.425
SPROUT 19 Dec 23:32:50 23:37:04 62° 259° (W) 23:41:19 437.525
YUBILEINY 19 Dec 23:35:56 23:44:41 83° 94° (E) 23:53:26 435.215
O/OREOS (USA 219) 19 Dec 23:39:18 23:43:15 32° 103° (ESE) 23:47:12 437.305
DUCHIFAT 1 19 Dec 23:42:23 23:45:17 18° 291° (WNW) 23:48:11 145.980
BUGSAT 1 19 Dec 23:45:11 23:48:06 19° 290° (WNW) 23:51:02 437.445
QB50P2 19 Dec 23:56:17 23:58:08 13° 293° (WNW) 23:59:59 145.880/145.840
SWISSCUBE 19 Dec 23:56:35 00:00:56 36° 72° (ENE) 00:05:18 437.505
ITUPSAT 1 19 Dec 23:56:50 00:01:06 32° 71° (ENE) 00:05:21 437.325
RS-15 19 Dec 23:57:02 00:00:02 11° 262° (W) 00:03:04 29.354- 29.394
AUBIESAT-1 20 Dec 00:04:29 00:08:17 24° 65° (ENE) 00:12:10 437.475
BEESAT 20 Dec 00:21:19 00:26:02 63° 75° (ENE) 00:30:47 436.000
M-CUBED/EXP-1 PRIME 20 Dec 00:28:36 00:33:09 48° 69° (ENE) 00:37:53 437.505
Oscar 19 20 Dec 00:57:00 01:02:04 52° 100° (E) 01:07:06 437.125/150
Gurwin Techsat 1B 20 Dec 01:05:00 01:06:27 11° 92° (E) 01:07:53 435.225
ITAMSAT 1 20 Dec 01:11:49 01:15:56 24° 96° (E) 01:20:03 435.822/435.867
O/OREOS (USA 219) 20 Dec 01:19:34 01:22:40 18° 298° (WNW) 01:25:46 437.305
STARS 20 Dec 01:35:03 01:39:15 48° 74° (ENE) 01:43:28 437.465
ITUPSAT 1 20 Dec 01:35:24 01:38:58 21° 264° (W) 01:42:33 437.325
SWISSCUBE 20 Dec 01:35:31 01:38:50 19° 265° (W) 01:42:10 437.505
KKS-1 20 Dec 01:36:58 01:41:23 82° 77° (ENE) 01:45:50 437.445
YUBILEINY 20 Dec 01:37:19 01:42:24 17° 292° (WNW) 01:47:31 435.215
AUBIESAT-1 20 Dec 01:38:46 01:42:59 32° 259° (WSW) 01:47:21 437.475
BEESAT 20 Dec 02:03:49 02:04:12 10° 268° (W) 02:04:35 436.000
M-CUBED/EXP-1 PRIME 20 Dec 02:05:30 02:08:19 16° 263° (W) 02:11:12 437.505
VERMONT LUNAR 20 Dec 02:18:40 02:22:10 69° 151° (SSE) 02:25:41 437.305
PHONESAT 2.4 20 Dec 02:29:14 02:32:46 52° 149° (SSE) 02:36:18 2401.200-2431.200
Oscar 19 20 Dec 02:37:53 02:40:55 16° 294° (WNW) 02:43:57 437.125/150
AIST 1 20 Dec 02:39:12 02:42:22 20° 77° (ENE) 02:45:30
Gurwin Techsat 1B 20 Dec 02:41:31 02:46:47 68° 285° (WNW) 02:52:02 435.225
MOZHAYETS 4 20 Dec 02:44:55 02:46:12 11° 66° (ENE) 02:47:28
ITAMSAT 1 20 Dec 02:50:50 02:55:23 32° 290° (WNW) 02:59:55 435.822/435.867
HORYU 2 20 Dec 03:03:20 03:07:52 82° 103° (ESE) 03:12:22 437.375
STARS 20 Dec 03:14:39 03:15:56 11° 267° (W) 03:17:13 437.465
GONETS M04 20 Dec 03:39:11 03:43:52 16° 80° (E) 03:48:32
AO-7 20 Dec 03:48:22 03:56:41 65° 104° (ESE) 04:04:55 29.400- 29.500
VERMONT LUNAR 20 Dec 03:57:32 04:00:41 30° 346° (NNW) 04:03:50 437.305
PHONESAT 2.4 20 Dec 04:08:12 04:11:33 35° 344° (NNW) 04:14:55 2401.200-2431.200
JAS-2 20 Dec 04:16:09 04:21:09 35° 97° (E) 04:25:51 435.910
AIST 1 20 Dec 04:16:31 04:19:55 23° 271° (W) 04:23:17
MOZHAYETS 4 20 Dec 04:18:16 04:22:50 60° 259° (W) 04:27:27
PRISM 20 Dec 05:14:54 05:19:08 84° 77° (ENE) 05:23:22 437.425
SO-50 20 Dec 05:17:49 05:22:03 28° 54° (NE) 05:26:16 436.795
GONETS M04 20 Dec 05:30:38 05:39:28 84° 276° (W) 05:48:22
VERMONT LUNAR 20 Dec 05:36:49 05:39:38 22° 3° (N) 05:42:28 437.305
STRAND 1 20 Dec 05:37:05 05:42:04 55° 74° (ENE) 05:47:02 437.568
CUBESAT XI-V 20 Dec 05:39:42 05:44:21 67° 76° (ENE) 05:48:59 437.345
Cubesat XI-IV 20 Dec 05:41:16 05:46:24 48° 100° (E) 05:51:31 437.490
AO-7 20 Dec 05:42:24 05:48:45 25° 300° (WNW) 05:55:06 29.400- 29.500
PHONESAT 2.4 20 Dec 05:47:55 05:50:51 22° 1° (N) 05:53:47 2401.200-2431.200
JAS-2 20 Dec 06:01:52 06:05:58 22° 294° (WNW) 06:09:52 435.910
CUTE-I 20 Dec 06:14:33 06:19:53 79° 284° (WNW) 06:25:11 437.470
SO-50 20 Dec 06:58:19 07:02:30 28° 249° (WSW) 07:06:40 436.795
VERMONT LUNAR 20 Dec 07:15:05 07:18:29 43° 20° (NNE) 07:21:52 437.305
STRAND 1 20 Dec 07:19:05 07:21:30 13° 267° (W) 07:23:55 437.568
Cubesat XI-IV 20 Dec 07:22:39 07:26:03 18° 294° (WNW) 07:29:27 437.490
PHONESAT 2.4 20 Dec 07:26:42 07:30:07 38° 18° (NNE) 07:33:32 2401.200-2431.200
GONETS M04 20 Dec 07:33:43 07:37:32 13° 294° (WNW) 07:41:22
HO-68 20 Dec 07:45:52 07:51:52 29° 97° (E) 07:57:49 435.675
CANX-2 20 Dec 07:49:53 07:53:13 22° 96° (E) 07:56:31 2200.000
BRITE-PL 20 Dec 08:02:36 08:07:02 36° 99° (E) 08:11:46 437.365/2234.400
COMPASS 1 20 Dec 08:12:39 08:16:12 25° 96° (E) 08:19:43 437.405
SEEDS 20 Dec 08:17:20 08:21:17 35° 98° (E) 08:25:12 437.485
CUTE 1.7 + AOD 2 20 Dec 08:20:05 08:24:14 46° 99° (E) 08:28:21 437.475
CUSAT 1 20 Dec 08:24:38 08:26:50 16° 84° (E) 08:29:25 437.405
GOMX 1 20 Dec 08:31:04 08:35:48 52° 100° (E) 08:40:51 467.674
MaSat-1 20 Dec 08:32:22 08:34:29 28° 294° (WNW) 08:36:32 437.345
DELFI C3 20 Dec 08:32:41 08:34:50 14° 94° (E) 08:36:59 145.870
DX 1 20 Dec 08:33:43 08:35:46 13° 94° (E) 08:37:49 434.975-435.025
UNISAT 6 20 Dec 08:50:34 08:53:39 19° 69° (ENE) 08:56:47 437.425
VERMONT LUNAR 20 Dec 08:53:32 08:56:45 33° 214° (SW) 08:59:58 437.305
Oscar 11 20 Dec 08:55:14 08:59:13 34° 98° (E) 09:03:10 145.826/435.025
DUCHIFAT 1 20 Dec 08:56:19 08:58:15 13° 68° (ENE) 09:00:11 145.980
DOVE 4 20 Dec 08:58:10 09:03:01 75° 102° (ESE) 09:08:08 437.250
BUGSAT 1 20 Dec 08:58:44 08:59:04 10° 67° (ENE) 08:59:25 437.445
UKube-1 20 Dec 09:03:39 09:07:28 30° 98° (E) 09:11:16 .
PHONESAT 2.4 20 Dec 09:05:22 09:08:51 44° 212° (SSW) 09:12:20 2401.200-2431.200
QB50P2 20 Dec 09:08:25 09:11:24 19° 70° (ENE) 09:14:24 145.880/145.840
CUBEBUG 2 20 Dec 09:12:17 09:16:36 36° 98° (E) 09:20:57 437.445
AAUSAT CUBESAT 2 20 Dec 09:12:36 09:16:47 62° 284° (WNW) 09:20:57 437.432
DANDE 20 Dec 09:13:23 09:16:28 61° 95° (E) 09:20:31 436.750
POLYITAN 1 20 Dec 09:16:41 09:20:04 24° 71° (ENE) 09:23:26 437.675
NANOSAT C BR1 20 Dec 09:19:08 09:22:35 25° 71° (ENE) 09:26:02 145.865
ANTELSAT 20 Dec 09:21:14 09:25:21 44° 74° (ENE) 09:29:34 437.575/2403.000
ZACube-1 20 Dec 09:24:31 09:28:41 34° 98° (E) 09:32:52 437.345
CANX-2 20 Dec 09:25:32 09:29:03 25° 289° (WNW) 09:32:33 2200.000
VELOX 1 20 Dec 09:26:12 09:29:08 17° 95° (E) 09:32:03 145.980
CINEMA 3 20 Dec 09:26:16 09:31:05 89° 99° (E) 09:36:03 145.822/145.860
HO-68 20 Dec 09:32:56 09:39:37 45° 292° (WNW) 09:46:17 435.675
QB50P1 20 Dec 09:33:00 09:36:52 37° 73° (ENE) 09:40:45 145.935-145.965
BRITE-PL 20 Dec 09:41:49 09:45:19 20° 289° (WNW) 09:48:59 437.365/2234.400
RS-15 20 Dec 09:46:40 09:55:09 27° 104° (ESE) 10:03:32 29.354- 29.394
COMPASS 1 20 Dec 09:48:35 09:51:43 20° 290° (WNW) 09:54:51 437.405
UWE-3 20 Dec 09:50:55 09:55:33 87° 103° (ESE) 10:00:14 435.000/436.395/437.385
FUNcube-1 20 Dec 09:51:03 09:55:36 72° 101° (ESE) 10:00:11 145.935
YUBILEINY 20 Dec 09:52:29 10:00:04 33° 75° (ENE) 10:07:36 435.215
O/OREOS (USA 219) 20 Dec 09:53:31 09:57:30 30° 66° (ENE) 10:01:28 437.305
SEEDS 20 Dec 09:54:16 09:56:45 15° 291° (WNW) 09:59:14 437.485
TIGRISAT 20 Dec 09:56:48 10:01:04 68° 259° (W) 10:05:28 435.000
CUTE 1.7 + AOD 2 20 Dec 09:58:00 09:59:42 12° 293° (WNW) 10:01:24 437.475
POPSAT HIP 1 20 Dec 10:01:16 10:05:28 87° 77° (ENE) 10:09:42 437.405
DELFI C3 20 Dec 10:06:26 10:10:10 34° 287° (WNW) 10:13:52 145.870
CUSAT 1 20 Dec 10:07:10 10:09:41 18° 291° (WNW) 10:12:41 437.405
50 SAT 20 Dec 10:07:48 10:11:49 48° 100° (E) 10:15:50 437.505
AISAT 20 Dec 10:07:59 10:12:21 58° 101° (E) 10:16:43 437.250
DX 1 20 Dec 10:08:04 10:12:08 41° 287° (WNW) 10:16:12 434.975-435.025
GOMX 1 20 Dec 10:10:56 10:13:32 15° 292° (WNW) 10:16:13 467.674
JUGNU 20 Dec 10:11:41 10:14:08 13° 163° (SSE) 10:16:34 437.505
CUBEBUG 1 20 Dec 10:15:48 10:19:14 23° 96° (E) 10:22:40 437.445
UNISAT 6 20 Dec 10:26:26 10:30:11 29° 263° (W) 10:34:03 437.425
HUMSAT D 20 Dec 10:27:24 10:31:44 73° 283° (WNW) 10:36:04 437.325/437.525
DUCHIFAT 1 20 Dec 10:29:46 10:33:43 40° 261° (W) 10:37:41 145.980
BUGSAT 1 20 Dec 10:30:07 10:34:06 49° 260° (W) 10:38:04 437.445
Oscar 11 20 Dec 10:32:21 10:35:04 16° 291° (WNW) 10:37:46 145.826/435.025
UKube-1 20 Dec 10:40:23 10:43:22 19° 291° (WNW) 10:46:21 .
QB50P2 20 Dec 10:43:31 10:47:06 27° 263° (W) 10:50:42 145.880/145.840
CUBEBUG 2 20 Dec 10:49:48 10:52:59 19° 291° (WNW) 10:56:13 437.445
POLYITAN 1 20 Dec 10:52:41 10:55:54 21° 264° (W) 10:59:07 437.675
NANOSAT C BR1 20 Dec 10:55:16 10:58:22 20° 264° (W) 11:01:30 145.865
ANTELSAT 20 Dec 11:00:39 11:02:21 12° 268° (W) 11:04:05 437.575/2403.000
ZACube-1 20 Dec 11:01:40 11:04:45 18° 291° (WNW) 11:07:51 437.345
VELOX 1 20 Dec 11:01:47 11:05:43 32° 288° (WNW) 11:09:39 145.980
ESTCUBE 1 20 Dec 11:02:51 11:07:21 87° 283° (WNW) 11:11:50 437.505/2401.250
QB50P1 20 Dec 11:10:47 11:12:51 13° 266° (W) 11:14:55 145.935-145.965
TISAT 1 20 Dec 11:22:06 11:25:51 31° 98° (E) 11:29:36 437.305
SPROUT 20 Dec 11:24:32 11:28:22 31° 98° (E) 11:32:11 437.525
O/OREOS (USA 219) 20 Dec 11:33:25 11:36:38 19° 259° (W) 11:39:52 437.305
BEESAT 2 20 Dec 11:41:56 11:44:17 15° 108° (ESE) 11:46:40 435.950
50 SAT 20 Dec 11:45:29 11:46:34 11° 293° (WNW) 11:47:39 437.505
AISAT 20 Dec 11:47:35 11:48:26 11° 294° (WNW) 11:49:17 437.250
YUBILEINY 20 Dec 11:48:49 11:56:54 45° 271° (W) 12:05:00 435.215
CUBEBUG 1 20 Dec 11:52:02 11:55:29 24° 289° (WNW) 11:58:55 437.445
RS-15 20 Dec 11:55:35 12:06:28 68° 301° (WNW) 12:17:23 29.354- 29.394
JUGNU 20 Dec 11:58:07 12:02:31 21° 173° (S) 12:06:55 437.505
SWISSCUBE 20 Dec 12:03:23 12:05:35 13° 93° (E) 12:07:46 437.505
ITUPSAT 1 20 Dec 12:04:15 12:05:55 12° 93° (E) 12:07:35 437.325
PCSat 20 Dec 12:09:09 12:13:09 21° 106° (ESE) 12:17:09 145.827
Oscar 19 20 Dec 12:09:25 12:14:18 47° 73° (ENE) 12:19:14 437.125/150
Gurwin Techsat 1B 20 Dec 12:21:47 12:23:57 13° 64° (ENE) 12:26:06 435.225
ISS 20 Dec 12:22:05 12:25:18 51° 132° (SE) 12:28:31 145.825
ITAMSAT 1 20 Dec 12:25:42 12:29:46 24° 68° (ENE) 12:33:50 435.822/435.867
BEESAT 20 Dec 12:27:04 12:30:50 23° 96° (E) 12:34:34 436.000
BEESAT 3 20 Dec 12:38:19 12:42:23 87° 117° (ESE) 12:46:32 437.485
AIST 2 20 Dec 12:44:20 12:48:11 36° 113° (ESE) 12:52:06 435.215
TISAT 1 20 Dec 12:58:40 13:01:24 17° 291° (WNW) 13:04:08 437.305
SPROUT 20 Dec 13:01:20 13:04:10 18° 291° (WNW) 13:07:01 437.525
SRMSAT 20 Dec 13:01:27 13:05:35 19° 170° (S) 13:09:42 437.500
BEESAT 2 20 Dec 13:18:24 13:22:11 35° 303° (WNW) 13:26:02 435.950
AUBIESAT-1 20 Dec 13:26:25 13:30:10 31° 101° (E) 13:33:36 437.475
STARS 20 Dec 13:31:24 13:33:32 13° 94° (E) 13:35:39 437.465
KKS-1 20 Dec 13:33:32 13:37:04 23° 96° (E) 13:40:34 437.445
SWISSCUBE 20 Dec 13:39:04 13:43:39 49° 286° (WNW) 13:48:12 437.505
ITUPSAT 1 20 Dec 13:39:25 13:44:04 54° 286° (WNW) 13:48:41 437.325
JUGNU 20 Dec 13:46:20 13:50:58 23° 183° (S) 13:55:35 437.505
Oscar 19 20 Dec 13:50:44 13:53:49 16° 266° (W) 13:56:55 437.125/150
PCSat 20 Dec 13:51:09 13:56:13 40° 300° (WNW) 14:01:19 145.827
M-CUBED/EXP-1 PRIME 20 Dec 13:51:33 13:55:50 79° 106° (ESE) 13:59:42 437.505
HORYU 2 20 Dec 13:57:31 14:01:43 42° 73° (ENE) 14:05:57 437.375
Gurwin Techsat 1B 20 Dec 13:58:00 14:03:16 68° 258° (WSW) 14:08:33 435.225
ISS 20 Dec 14:00:08 14:02:05 15° 328° (NNW) 14:04:02 145.825
BEESAT 20 Dec 14:04:33 14:08:36 28° 290° (WNW) 14:12:38 436.000
